Regional Weather Roundup
Issued by NWS

Home | Current Version | Previous Version | Text Only | Print | Product List | Glossary On
Versions: 1 2 3 4 5 6 7 8 9 10 11 12 13 14 15 16 17 18 19 20 21 22 23 24 25 26 27 28 29 30 31 32 33 34 35 36 37 38 39 40 41 42 43 44 45 46 47 48 49 50
000
ASUS43 KMKX 231211
RWRWI

WISCONSIN REGIONAL WEATHER ROUNDUP
NATIONAL WEATHER SERVICE MILWAUKEE/SULLIVAN WI
700 AM CDT THU OCT 23 2014

NOTE: "FAIR" INDICATES FEW OR NO CLOUDS BELOW 12,000 FEET WITH NO
SIGNIFICANT WEATHER AND/OR OBSTRUCTIONS TO VISIBILITY.

WIZ001-002-006>008-014>016-023>028-231300-
NORTHWEST WISCONSIN

CITY           SKY/WX    TMP DP  RH WIND       PRES   REMARKS
SUPERIOR ARPT  CLOUDY    47  47  98 CALM      29.97F
6HR MIN TEMP:  47; 6HR MAX TEMP:  53; 6HR PCP:  0.07;

ASHLAND        CLOUDY    49  44  83 S7        30.00F
6HR MIN TEMP:  48; 6HR MAX TEMP:  53; 6HR PCP:  0.01;

HAYWARD        LGT RAIN  47  44  90 S7        30.01S FOG
6HR MIN TEMP:  47; 6HR MAX TEMP:  50; 6HR PCP:  0.08;

SIREN          CLOUDY    48  47  95 S6        29.98F
6HR MIN TEMP:  48; 6HR MAX TEMP:  54; 6HR PCP:  0.05;

CUMBERLAND     CLOUDY    45  43  93 SE3       30.00F
RICE LAKE      CLOUDY    47  44  88 SE6       30.03S
6HR MIN TEMP:  47; 6HR MAX TEMP:  48;

CHETEK         DRIZZLE   47  45  93 SE7       30.02F
6HR MIN TEMP:  46; 6HR MAX TEMP:  47;

LADYSMITH      LGT RAIN  46  44  90 SE8       30.05F
6HR MIN TEMP:  46; 6HR MAX TEMP:  50; 6HR PCP:  0.05;

EAU CLAIRE     RAIN      47  45  93 SE5       30.03F FOG
6HR MIN TEMP:  47; 6HR MAX TEMP:  51; 6HR PCP:  0.16;

MENOMONIE      DRIZZLE   48  47  95 SE5       30.03S
6HR MIN TEMP:  48; 6HR MAX TEMP:  51; 6HR PCP:  0.02;

NEW RICHMOND   CLOUDY    49  48  94 S8        30.00S
6HR MIN TEMP:  48; 6HR MAX TEMP:  52; 6HR PCP:  0.04;

OSCEOLA        CLOUDY    50  50 100 S6        30.01F
6HR MIN TEMP:  49; 6HR MAX TEMP:  53; 6HR PCP:  0.02;

$$

WIZ003>005-009-010-017-018-231300-
NORTH CENTRAL WISCONSIN

CITY           SKY/WX    TMP DP  RH WIND       PRES   REMARKS
MANITOWISH WTR CLOUDY    42  40  91 S9        30.04F
6HR MIN TEMP:  42; 6HR MAX TEMP:  45;

ARBOR VITAE    CLOUDY    43  40  89 S8        30.05F
6HR MIN TEMP:  43; 6HR MAX TEMP:  47;

WOODRUFF       CLOUDY    43  40  89 S8        30.05F
6HR MIN TEMP:  43; 6HR MAX TEMP:  47;

RHINELANDER    LGT RAIN  43  40  89 S7        30.08F
6HR MIN TEMP:  41; 6HR MAX TEMP:  46; 6HR PCP:  0.01;

EAGLE RIVER    CLOUDY    44  35  71 CALM      30.06F
6HR MIN TEMP:  40; 6HR MAX TEMP:  44;

LAND O LAKES   MOCLDY    44  37  74 S6        30.06F
6HR MIN TEMP:  43; 6HR MAX TEMP:  45;

PHILLIPS       CLOUDY    44  40  86 S7        30.04S
6HR MIN TEMP:  44; 6HR MAX TEMP:  49; 6HR PCP:  0.02;

TOMAHAWK       CLOUDY    41  39  95 CALM      30.08S FOG
6HR MIN TEMP:  40; 6HR MAX TEMP:  43; 6HR PCP:  0.03;

MEDFORD        CLOUDY    41  39  92 SE10      30.06F
6HR MIN TEMP:  41; 6HR MAX TEMP:  44; 6HR PCP:  0.01;

MERRILL        CLOUDY    41  41  99 S5        30.08F FOG
6HR MIN TEMP:  40; 6HR MAX TEMP:  42; 6HR PCP:  0.06;

$$

WIZ029-030-035-036-043>047-231300-
CENTRAL WISCONSIN

CITY           SKY/WX    TMP DP  RH WIND       PRES   REMARKS
WAUSAU         LGT RAIN  42  39  89 SE7       30.09F
6HR MIN TEMP:  40; 6HR MAX TEMP:  43; 6HR PCP:  0.19;

MOSINEE        LGT RAIN  39  39 100 SE8       30.11F WCI  34
MARSHFIELD     CLOUDY    43  39  86 S8        30.08F
6HR MIN TEMP:  42; 6HR MAX TEMP:  44; 6HR PCP:  0.07;

STEVENS POINT  LGT RAIN  39  37  94 SE6       30.12F WCI  34
6HR MIN TEMP:  36; 6HR MAX TEMP:  40; 6HR PCP:  0.02;

WAUPACA        PTCLDY    36  35  96 CALM      30.15F FOG
6HR MIN TEMP:  32; 6HR MAX TEMP:  39;

WAUTOMA        PTCLDY    36  34  92 CALM      30.15F
6HR MIN TEMP:  29; 6HR MAX TEMP:  39;

WISC RAPIDS    CLOUDY    41  38  89 SE8       30.12F
6HR MIN TEMP:  40; 6HR MAX TEMP:  42; 6HR PCP:  0.06;

CAMP DOUGLAS   CLOUDY    48  40  73 S6        30.09F
6HR MIN TEMP:  36; 6HR MAX TEMP:  48; 6HR PCP: TRACE;

$$

WIZ011>013-019>022-031-037>040-048>050-231300-
NORTHEAST WISCONSIN

CITY           SKY/WX    TMP DP  RH WIND       PRES   REMARKS
ANTIGO         CLOUDY    37  36  96 S8        30.11F FOG     WCI  31
6HR MIN TEMP:  35; 6HR MAX TEMP:  37;

SHAWANO        CLEAR     32  31  97 CALM      30.16S FOG
6HR MIN TEMP:  32; 6HR MAX TEMP:  37;

OCONTO           N/A     30  30 100 CALM      30.17S
6HR MIN TEMP:  29; 6HR MAX TEMP:  42;

STURGEON BAY   CLEAR     39  37  93 S7        30.18S WCI  34
6HR MIN TEMP:  39; 6HR MAX TEMP:  43;

GREEN BAY      CLEAR     37  35  92 S6        30.17F WCI  32
6HR MIN TEMP:  36; 6HR MAX TEMP:  39;

MANITOWOC      CLEAR     40  40 100 S6        30.19F
6HR MIN TEMP:  37; 6HR MAX TEMP:  41;

APPLETON       PTCLDY    37  34  87 S7        30.16F WCI  32
CLINTONVILLE   CLEAR     32  32 100 CALM      30.15F FOG
OSHKOSH        CLEAR     33  31  92 S6        30.16F WCI  28
6HR MIN TEMP:  32; 6HR MAX TEMP:  38;

$$

WIZ032>034-041-042-053>061-231300-
SOUTHWEST WISCONSIN

CITY           SKY/WX    TMP DP  RH WIND       PRES   REMARKS
LA CROSSE      LGT RAIN  49  46  90 S9        30.06F
6HR MIN TEMP:  49; 6HR MAX TEMP:  53; 6HR PCP:  0.13;

SPARTA         HVY RAIN  48  41  78 SW5       30.09F
6HR MIN TEMP:  48; 6HR MAX TEMP:  51; 6HR PCP:  0.06;

VIROQUA        CLOUDY    47  39  75 S6        30.08F
6HR MIN TEMP:  47; 6HR MAX TEMP:  48;

BOSCOBEL       CLOUDY    49  37  63 VRB3      30.12F
6HR MIN TEMP:  39; 6HR MAX TEMP:  49;

PRAIRIE DU CHI CLOUDY    50  38  63 SE6       30.09F
6HR MIN TEMP:  48; 6HR MAX TEMP:  52; 6HR PCP:  0.01;

PLATTEVILLE    CLOUDY    44  38  81 SE8       30.14F
6HR MIN TEMP:  38; 6HR MAX TEMP:  44;

$$

WIZ056-057-062-063-064-067-068-231300-
SOUTH CENTRAL WISCONSIN

CITY           SKY/WX    TMP DP  RH WIND       PRES   REMARKS
REEDSBURG      CLOUDY    45  37  72 S6        30.12F
6HR MIN TEMP:  42; 6HR MAX TEMP:  46;

BARABOO/DELLS  CLOUDY    44  34  69 S7        30.13S
6HR MIN TEMP:  40; 6HR MAX TEMP:  44;

LONE ROCK      CLOUDY    48  37  65 E7        30.13F
6HR MIN TEMP:  44; 6HR MAX TEMP:  48;

MINERAL POINT  CLOUDY    45  36  70 S10       30.13F
MADISON        MOCLDY    40  35  83 S8        30.17F WCI  34
6HR MIN TEMP:  38; 6HR MAX TEMP:  41;

MIDDLETON      PTCLDY    41  35  77 CALM      30.16F
6HR MIN TEMP:  37; 6HR MAX TEMP:  42;

WATERTOWN      PTCLDY    34  34 100 CALM      30.18S FOG
6HR MIN TEMP:  31; 6HR MAX TEMP:  37;

MONROE         MOCLDY    37  36  93 S8        30.16F WCI  31
JANESVILLE     CLEAR     36  34  93 SE6       30.18S WCI  31
$$

WIZ051-052-058>065-066-070>072-231300-
SOUTHEAST WISCONSIN

CITY           SKY/WX    TMP DP  RH WIND       PRES   REMARKS
MILWAUKEE      PTCLDY    38  35  89 S5        30.20F WCI  34
6HR MIN TEMP:  33; 6HR MAX TEMP:  40;

WAUKESHA       CLEAR     32  32 100 CALM      30.21S FOG
MILWAUKEE/TIMM CLEAR     32  28  86 CALM      30.21F
RACINE         CLEAR     38  36  92 CALM      30.22F FOG
6HR MIN TEMP:  32; 6HR MAX TEMP:  40;

BURLINGTON     FOG       25  25  99 CALM      30.20S VSB 1/4
6HR MIN TEMP:  24; 6HR MAX TEMP:  28;

KENOSHA        CLEAR     37  35  92 S5        30.20F FOG     WCI  33
6HR MIN TEMP:  30; 6HR MAX TEMP:  38;

FOND DU LAC    CLEAR     34  31  88 S3        30.17F
6HR MIN TEMP:  33; 6HR MAX TEMP:  38;

SHEBOYGAN      CLEAR     30  28  92 SW5       30.19F WCI  25
6HR MIN TEMP:  27; 6HR MAX TEMP:  33;

WEST BEND      PTCLDY    32  32 100 CALM      30.19F FOG
JUNEAU         CLEAR     35  34  96 SE5       30.19S FOG     WCI  31
6HR MIN TEMP:  35; 6HR MAX TEMP:  37;

$$

LSZ147-162-231300-
LAKE SUPERIOR

STATION/POSITION TIME  TEMP    WIND        PRES    WAVE
                       AIR SEA DIR/SP/G            HT/PER
                 (UTC) (F)     (DEG/KT/KT) (MB)    (FT/S)
W MID LAKE BUOY  1150   48 46  160/ 12/ 14 1016.4F   2/ 3
DEVILS ISLAND    1200   49     170/  6/  8 1015.9F
PORT WING        1100   51     190/  5/  9 1015.6R
SAXON HARBOR     1100   51     180/  7/ 13 1015.9F
$$

LMZ867-665-643>646-231300-
LAKE MICHIGAN




USA.gov is the U.S. government's official web portal to all federal, state and local government web resources and services.